Location: Carter Cabin
(41.0271°N, 122.9339°W)
Time: 14:32:21
(UTC+00:00)

Cosmos 494 Rocket - Pass Details

Date: 13 April 2024
Orbit: 740 x 768 km, 74.1° (Epoch: 21 May)

Event Time Altitude Azimuth Distance (km) Brightness Sun altitude
Exits shadow 13:02:22 - 211° (SSW) 3,222 6.8 -6.7°
Rises 13:02:26 0° 211° (SSW) 3,198 6.7 -6.7°
Reaches altitude 10° 13:04:51 10° 217° (SW) 2,272 6.0 -6.2°
Maximum altitude 13:09:52 51° 293° (WNW) 937 4.2 -5.3°
Drops below altitude 10° 13:14:53 10° 10° (N) 2,270 6.8 -4.4°
Sets 13:17:18 0° 15° (NNE) 3,195 7.7 -4.0°
